Tracking 17142 objects as of 28-May-2015
HD Live streaming from Space Station

GALAXY 14

Track GALAXY 14 now!
GALAXY 14 is classified as:


NORAD ID: 28790
Int'l Code: 2005-030A
Perigee: 35,782.9 km
Apogee: 35,803.8 km
Inclination: 0.0 °
Period: 1,436.1 minutes
Semi major axis: 42164 km
RCS: 19.9526 m2 (large)
Launch date: August 13, 2005
Source: United States (US)

24 C-band transponders; North America, Caribbean.
Your satellite tracking list
Your tracking list is empty





NASA's NSSDC Master Catalog

Two Line Element Set (TLE):
1 28790U 05030A   15147.44519035  .00000033  00000-0  10000-3 0  9993
2 28790 000.0198 302.8863 0002483 102.5786 234.4837 01.00273233 35800

Source of the keplerian elements: AFSPC

N2YO: 945